Location: York
(31.8935°S, 116.7682°E)
Time: 15:21:27
(UTC+08:00)

deb Explorer IX - Visible Passes

Search period start: 25 September 2022 00:00
Search period end: 05 October 2022 00:00
Orbit: 530 x 1066 km, 38.8° (Epoch: 20 September)

Date Brightness Start Highest point End Pass type
(mag) Time Alt. Az. Time Alt. Az. Time Alt. Az.
25 Sep ? 05:06:18 11° NW 05:06:43 11° NW 05:08:01 10° NNW visible
25 Sep ? 19:40:07 10° NNW 19:43:59 26° NNE 19:43:59 26° NNE visible
26 Sep ? 19:09:38 10° NNW 19:14:14 26° NE 19:16:00 21° ENE visible
26 Sep ? 20:55:13 10° WNW 20:56:51 20° WNW 20:56:51 20° WNW visible
27 Sep ? 18:39:09 10° NNW 18:43:49 24° NE 18:47:55 10° E visible
27 Sep ? 20:24:35 10° WNW 20:28:45 51° WNW 20:28:45 51° WNW visible
28 Sep ? 19:53:57 10° WNW 19:59:38 85° NNE 20:00:34 60° ESE visible
29 Sep ? 19:23:17 10° WNW 19:29:11 80° NNE 19:32:15 25° ESE visible
29 Sep ? 21:10:49 10° W 21:13:05 23° WSW 21:13:05 23° WSW visible
30 Sep ? 18:52:35 10° WNW 18:58:41 75° NNE 19:03:49 10° ESE visible
30 Sep ? 20:40:06 10° W 20:44:39 42° SW 20:44:39 42° SW visible
01 Oct ? 20:09:20 10° W 20:14:52 47° SSW 20:16:06 39° SSE visible
02 Oct ? 19:38:33 10° W 19:44:21 50° SSW 19:47:28 22° SE visible
02 Oct ? 21:26:28 10° WSW 21:28:17 19° SW 21:28:17 19° SW visible
03 Oct ? 19:07:45 10° W 19:13:47 53° SSW 19:18:45 11° ESE visible
03 Oct ? 20:55:44 10° WSW 20:59:34 33° SSW 20:59:34 33° SSW visible
04 Oct ? 18:36:56 10° W 18:43:12 56° SSW 18:48:37 10° ESE visible
04 Oct ? 20:24:57 10° WSW 20:30:21 39° S 20:30:47 38° SSE visible
